Tracking 35035 objects as of 16-Aug-2026
HD Live streaming from Space Station
objects crossing your sky now

STARLINK-34799

Track STARLINK-34799 now!
10-day predictions
STARLINK-34799 is classified as:


NORAD ID: 65472
Int'l Code: 2025-195Q
Launch date: September 3, 2025
Source: United States (US)
Launch site: AIR FORCE EASTERN TEST RANGE (AFETR)
Your satellite tracking list
Your tracking list is empty




NASA's NSSDC Master Catalog

Two Line Element Set (TLE):
1 65472U 25195Q   26228.32162531  .00009240  00000-0  28430-3 0  9994
2 65472  53.1573 233.9043 0001239  90.3567 269.7578 15.34395254 54452
Source of the keplerian elements: AFSPC